Regional Weather Roundup
Issued by NWS Boston, MA

Current Version | Previous Version | Text Only | Print | Product List | Glossary Off
Versions: 1 2 3 4 5 6 7 8 9 10 11 12 13 14 15 16 17 18 19 20 21 22 23 24 25 26 27

000
ASUS41 KBOX 221610
RWRBOX

REGIONAL WEATHER ROUNDUP
NATIONAL WEATHER SERVICE TAUNTON MA
1200 PM EDT FRI SEP 22 2017

NOTE:  "FAIR" INDICATES FEW OR NO CLOUDS BELOW 12,000 FEET WITH NO
SIGNIFICANT WEATHER AND/OR OBSTRUCTIONS TO VISIBILITY.

MAZALL-221700-
EASTERN MASSACHUSETTS

CITY           SKY/WX    TMP DP  RH WIND       PRES   REMARKS
BOSTON         LGT RAIN  59  55  87 N24G37    30.01F
BEVERLY        CLOUDY    60  55  83 N15G30    30.03S
LAWRENCE       CLOUDY    62  56  80 NE17G25   30.07F
BEDFORD        CLOUDY    61  52  72 N14G24    30.02F
BLUE HILL        N/A     56  54  93 N20G35    30.00S
NORWOOD        LGT RAIN  61  57  87 N9G23     30.00F
MARSHFIELD     HVY RAIN  59  59 100 N14G28    29.97F VSB 3/4
PLYMOUTH       LGT RAIN  59  56  89 N18G35    29.96S FOG
TAUNTON        LGT RAIN  58  55  90 N15G24    29.96F FOG
NEW BEDFORD    LGT RAIN  58  56  93 N14G35    29.92S FOG
$$

MAZALL-221700-
CAPE COD AND THE ISLANDS

CITY           SKY/WX    TMP DP  RH WIND       PRES   REMARKS
FALMOUTH       LGT RAIN  59  59 100 NE26G32   29.90S
HYANNIS        LGT RAIN  61  60  97 N24G33    29.86S VSB 1
CHATHAM        RAIN      61  61 100 NE13G29   29.86F VSB 1
PROVINCETOWN   CLOUDY    59  57  93 NE29G39   29.93F FOG
NANTUCKET      LGT RAIN  62  62 100 N30G36    29.79S FOG
MARTHAS VNYRD  LGT RAIN  62  59  90 N23G37    29.85S FOG
$$

MAZALL-221700-
CENTRAL AND WESTERN MASSACHUSETTS

CITY           SKY/WX    TMP DP  RH WIND       PRES   REMARKS
WORCESTER      CLOUDY    62  50  64 N16G31    30.03S
FITCHBURG      CLOUDY    68  52  56 NE10G21   30.07S
ORANGE         CLOUDY    68  50  52 N14G24    30.06S
SPRINGFIELD    PTSUNNY   73  51  45 NE16G25   30.01F
WESTFIELD      CLOUDY    73  49  42 N15G24    30.03F
NORTH ADAMS    MOSUNNY   69  52  54 W5        30.08F
PITTSFIELD     MOSUNNY   71  44  37 N7        30.08F
$$

RIZALL-221700-
RHODE ISLAND

CITY           SKY/WX    TMP DP  RH WIND       PRES   REMARKS
PROVIDENCE     RAIN      59  58  96 N23G30    29.97F FOG
NEWPORT        LGT RAIN  59  58  96 N20G32    29.92F
BLOCK ISLAND   CLOUDY    61  56  83 N23G33    29.90F
SMITHFIELD     LGT RAIN  58  55  90 N14G28    29.99F
WESTERLY       LGT RAIN  65  57  75 N15G35    29.93F
$$

CTZALL-221700-
CONNECTICUT

CITY           SKY/WX    TMP DP  RH WIND       PRES   REMARKS
BRADLEY INTL   PTSUNNY   74  51  44 N20G29    30.02S
HARTFORD       PTSUNNY   73  53  49 N20G28    30.00S
BRIDGEPORT     SUNNY     79  55  43 N17       29.97S
DANBURY        MOSUNNY   76  53  44 N18       30.02F
GROTON         CLOUDY    71  56  58 N22G33    29.92R
NEW HAVEN      SUNNY     76  53  44 N17G32    29.96S
CHESTER        PTSUNNY   73  54  49 N21G28    29.97S
MERIDEN        PTSUNNY   74  52  46 N15G30    29.99S
WILLIMANTIC    CLOUDY    70  57  63 NE15G23   29.99R
OXFORD         MOSUNNY   73  54  51 N15G25    30.01F
$$

MEZ002-015-021-024-NHZ003-005-008-011-012-014-VTZ005-008-221700-
NORTHERN NEW ENGLAND

CITY           SKY/WX    TMP DP  RH WIND       PRES   REMARKS
PORTLAND ME    CLOUDY    65  49  56 NE13      30.11S
BANGOR ME      MOSUNNY   69  49  48 N10       30.15F
CONCORD NH     CLOUDY    67  49  52 N8        30.10S
MANCHESTER NH  CLOUDY    68  49  50 NE12      30.06F
NASHUA NH      CLOUDY    67  52  58 N13G21    30.07F
PORTSMOUTH NH  CLOUDY    61  52  73 NE10G20   30.06F
JAFFREY NH     CLOUDY    63  49  60 MISG      30.09F
KEENE NH       PTSUNNY   70  47  43 N8G20     30.08F
BURLINGTON VT  MOSUNNY   71  57  61 NW8       30.14F
MT. WASHINGTON MOSUNNY   54  25  32 E21G31      N/A
$$

NYZ052-076-221700-
EASTERN NEW YORK

CITY           SKY/WX    TMP DP  RH WIND       PRES   REMARKS
ALBANY         MOSUNNY   72  52  49 N10       30.10F
NEW YORK CITY  MOSUNNY   75  54  47 N16G24    29.99F
$$

ANZALL-221700-
MARINE OBSERVATIONS

STATION/POSITION TIME  TEMP    WIND        PRES    VSBY  WAVE
                       AIR SEA DIR/SP/G                  HT/PER
                 (UTC) (F)     (DEG/KT/KT) (MB)    (MI)  (FT/S)
BOSTON BUOY      1450   58 60   20/ 29/ 35 1014.4         14/10
BUZZARDS BAY     1500   59      10/ 35/ 37 1011.4R
NANTUCKET SOUND  1550   61 60   20/ 25/ 33 1009.2R         5/ 5
MASS BAY-STELLWA 1504   59 59   30/ 27/ 33 1015.2F        13/11
ISLE OF SHOALS   1500   58      20/ 28/ 32 1017.1S
S OF BLOCK IS    NOT AVBL
$$

......................KEY.........................
  SKY/WX - SKY CONDITION/PRESENT WEATHER
  TMP    - TEMPERATURE IN FAHRENHEIT
  DWPT   - DEWPOINT IN FAHRENHEIT
  RH     - RELATIVE HUMIDITY IN PERCENT
  WIND   - DIRECTION AND SPEED IN MPH
  PRES   - MEAN SEA LEVEL PRESSURE IN INCHES OF HG
  WCI    - WIND CHILL INDEX
  VSB    - VISIBILITY IN MILES
  HX     - HEAT INDEX
  TC     - TEMPERATURE IN CELSIUS
  VRB    - VARIABLE WIND DIRECTION
  N/A    - NOT AVAILABLE




USA.gov is the U.S. government's official web portal to all federal, state and local government web resources and services.